DW4379 Weather Reports


Display with metric or nautical units.
time (UTC)temp
F
wind
direction
speed
MPH
gust
MPH
rain 1hr
in
rain 24hr
in
rain mn
in
humidity
%
barometer
mb
20260905000003 94 0 0.0 0.0 0.00 0.00 0.00 62 1011.5
20260904235503 94 0 0.0 0.0 0.00 0.00 0.00 62 1011.5
20260904235217 94 0 0.0 0.0 0.00 0.00 0.00 62 1011.5
20260904234504 95 0 0.0 0.0 0.00 0.00 0.00 60 1011.4
20260904234004 95 0 0.0 0.0 0.00 0.00 0.00 59 1011.4
20260904233503 96 0 0.0 0.0 0.00 0.00 0.00 59 1011.3
20260904233003 96 0 0.0 0.0 0.00 0.00 0.00 59 1011.4
20260904232503 96 0 0.0 0.0 0.00 0.00 0.00 58 1011.5
20260904232217 96 0 0.0 0.0 0.00 0.00 0.00 57 1011.5
20260904231503 97 0 0.0 0.0 0.00 0.00 0.00 56 1011.4
20260904231004 97 0 0.0 0.0 0.00 0.00 0.00 55 1011.4
20260904230504 97 226 0.0 1.0 0.00 0.00 0.00 54 1011.4
20260904230217 97 226 0.0 1.0 0.00 0.00 0.00 54 1011.4
20260904225503 97 225 0.0 1.0 0.00 0.00 0.00 55 1011.4
20260904225004 97 230 0.0 1.0 0.00 0.00 0.00 55 1011.5
20260904224503 98 235 0.0 1.0 0.00 0.00 0.00 55 1011.5
20260904224004 98 242 0.0 1.0 0.00 0.00 0.00 54 1011.5
20260904223503 98 246 0.0 1.0 0.00 0.00 0.00 54 1011.6
20260904223004 98 239 0.0 1.0 0.00 0.00 0.00 54 1011.5
20260904222503 98 231 0.0 2.0 0.00 0.00 0.00 53 1011.3
20260904222003 98 228 0.0 2.0 0.00 0.00 0.00 54 1011.4
20260904221717 98 230 0.0 2.0 0.00 0.00 0.00 54 1011.5
20260904221003 98 231 0.0 2.0 0.00 0.00 0.00 52 1011.6
20260904220503 98 228 0.0 1.0 0.00 0.00 0.00 54 1011.7
20260904220004 98 201 0.0 1.0 0.00 0.00 0.00 53 1011.8
20260904215504 98 162 0.0 2.0 0.00 0.00 0.00 53 1011.7
20260904215218 98 170 0.0 2.0 0.00 0.00 0.00 52 1011.7
20260904214717 98 155 0.0 2.0 0.00 0.00 0.00 52 1011.7
20260904214003 99 125 0.0 2.0 0.00 0.00 0.00 53 1011.8
20260904213503 99 145 0.0 2.0 0.00 0.00 0.00 51 1011.8
20260904213004 100 214 0.0 2.0 0.00 0.00 0.00 52 1011.9
20260904212503 100 209 0.0 2.0 0.00 0.00 0.00 53 1011.9
20260904212003 100 210 0.0 1.0 0.00 0.00 0.00 51 1011.8
20260904211503 100 214 0.0 1.0 0.00 0.00 0.00 51 1011.9
20260904211003 100 214 0.0 1.0 0.00 0.00 0.00 51 1011.9
20260904210503 100 209 0.0 1.0 0.00 0.00 0.00 49 1012.0
20260904210004 100 197 0.0 2.0 0.00 0.00 0.00 50 1012.1
20260904205503 100 199 0.0 2.0 0.00 0.00 0.00 49 1012.2
20260904205003 100 211 0.0 1.0 0.00 0.00 0.00 50 1012.2
20260904204503 100 146 0.0 2.0 0.00 0.00 0.00 50 1012.2
20260904204004 100 145 0.0 2.0 0.00 0.00 0.00 49 1012.3
20260904203503 100 157 0.0 1.0 0.00 0.00 0.00 53 1012.4
20260904203004 99 187 0.0 1.0 0.00 0.00 0.00 52 1012.4
20260904202503 99 191 0.0 2.0 0.00 0.00 0.00 52 1012.6
20260904202218 99 186 0.0 2.0 0.00 0.00 0.00 53 1012.6
20260904201503 99 125 1.0 4.0 0.00 0.00 0.00 54 1012.7
20260904201003 99 107 1.0 3.0 0.00 0.00 0.00 54 1012.6
20260904200504 99 105 0.0 3.0 0.00 0.00 0.00 52 1012.7
20260904200004 99 0 0.0 0.0 0.00 0.00 0.00 53 1012.8
20260904195503 98 0 0.0 0.0 0.00 0.00 0.00 52 1012.8
20260904195218 98 28 0.0 1.0 0.00 0.00 0.00 54 1012.9
20260904194719 98 97 0.0 3.0 0.00 0.00 0.00 53 1013.0
20260904194218 98 107 0.0 3.0 0.00 0.00 0.00 53 1013.1
20260904193504 98 0 0.0 0.0 0.00 0.00 0.00 54 1013.3
20260904193004 98 263 0.0 1.0 0.00 0.00 0.00 54 1013.5
20260904192503 99 256 0.0 1.0 0.00 0.00 0.00 53 1013.5
20260904192003 100 247 0.0 1.0 0.00 0.00 0.00 52 1013.6
20260904191503 99 232 0.0 1.0 0.00 0.00 0.00 53 1013.6
20260904191003 99 229 0.0 1.0 0.00 0.00 0.00 53 1013.7
20260904190503 99 252 0.0 1.0 0.00 0.00 0.00 52 1013.7
20260904190003 99 276 0.0 1.0 0.00 0.00 0.00 53 1013.7
20260904185503 99 0 0.0 0.0 0.00 0.00 0.00 54 1013.8
20260904185003 99 337 0.0 1.0 0.00 0.00 0.00 53 1013.8
20260904184504 98 337 0.0 1.0 0.00 0.00 0.00 54 1013.9
20260904184003 98 0 0.0 0.0 0.00 0.00 0.00 54 1014.0
20260904183504 98 0 0.0 0.0 0.00 0.00 0.00 55 1013.9
20260904183003 98 0 0.0 0.0 0.00 0.00 0.00 55 1014.1
20260904182503 97 250 0.0 1.0 0.00 0.00 0.00 56 1014.3
20260904182003 97 232 1.0 4.0 0.00 0.00 0.00 56 1014.2
20260904181718 97 231 1.0 4.0 0.00 0.00 0.00 55 1014.2
20260904181217 98 267 0.0 3.0 0.00 0.00 0.00 56 1014.4
20260904180504 97 262 0.0 2.0 0.00 0.00 0.00 57 1014.5
20260904180217 97 309 0.0 2.0 0.00 0.00 0.00 57 1014.5
20260904175504 96 316 0.0 2.0 0.00 0.00 0.00 56 1014.6
20260904175217 97 263 0.0 2.0 0.00 0.00 0.00 56 1014.6
20260904174504 97 229 0.0 2.0 0.00 0.00 0.00 57 1014.6
20260904174217 97 221 0.0 2.0 0.00 0.00 0.00 58 1014.6
20260904173504 96 303 0.0 1.0 0.00 0.00 0.00 58 1014.7
20260904173003 96 214 0.0 1.0 0.00 0.00 0.00 59 1014.7
20260904172503 96 287 0.0 1.0 0.00 0.00 0.00 58 1014.8
20260904172004 95 304 0.0 1.0 0.00 0.00 0.00 58 1014.8
20260904171717 95 314 0.0 1.0 0.00 0.00 0.00 58 1014.8
20260904171003 95 305 0.0 1.0 0.00 0.00 0.00 60 1014.9
20260904170718 95 314 0.0 2.0 0.00 0.00 0.00 59 1014.9
20260904170219 95 293 0.0 3.0 0.00 0.00 0.00 59 1015.0
20260904165504 95 267 0.0 2.0 0.00 0.00 0.00 60 1014.9
20260904165218 95 268 0.0 2.0 0.00 0.00 0.00 59 1015.0
20260904164503 94 272 0.0 1.0 0.00 0.00 0.00 61 1015.1
20260904164003 94 242 0.0 3.0 0.00 0.00 0.00 62 1015.0
20260904163503 94 236 1.0 4.0 0.00 0.00 0.00 61 1014.8
20260904163003 94 237 0.0 4.0 0.00 0.00 0.00 62 1014.8
20260904162503 94 195 0.0 1.0 0.00 0.00 0.00 61 1014.9
20260904162003 94 261 0.0 1.0 0.00 0.00 0.00 61 1014.9
20260904161504 93 275 0.0 1.0 0.00 0.00 0.00 62 1014.9
20260904161003 93 299 0.0 2.0 0.00 0.00 0.00 62 1014.9
20260904160717 92 305 0.0 2.0 0.00 0.00 0.00 62 1014.9
20260904160004 92 299 1.0 2.0 0.00 0.00 0.00 63 1014.9
20260904155503 92 290 0.0 2.0 0.00 0.00 0.00 63 1014.8
20260904155218 92 284 0.0 2.0 0.00 0.00 0.00 64 1014.8
20260904154717 92 0 0.0 0.0 0.00 0.00 0.00 64 1014.8
20260904154003 91 241 0.0 4.0 0.00 0.00 0.00 65 1014.9
20260904153503 91 237 0.0 4.0 0.00 0.00 0.00 67 1014.9
20260904153218 91 237 0.0 3.0 0.00 0.00 0.00 67 1014.8
20260904152504 90 241 0.0 1.0 0.00 0.00 0.00 68 1014.7
20260904152003 90 207 0.0 2.0 0.00 0.00 0.00 68 1014.9
20260904151504 90 215 0.0 2.0 0.00 0.00 0.00 67 1014.8
20260904151003 90 209 0.0 3.0 0.00 0.00 0.00 68 1014.7
20260904150504 89 209 0.0 4.0 0.00 0.00 0.00 68 1014.7
20260904150004 89 213 0.0 4.0 0.00 0.00 0.00 69 1014.7
20260904145717 89 159 0.0 2.0 0.00 0.00 0.00 69 1014.7
20260904145218 89 234 0.0 1.0 0.00 0.00 0.00 70 1014.7
20260904144503 88 216 0.0 3.0 0.00 0.00 0.00 71 1014.7
20260904144003 88 208 0.0 2.0 0.00 0.00 0.00 72 1014.6
20260904143719 88 217 0.0 2.0 0.00 0.00 0.00 72 1014.6
20260904143004 87 234 0.0 2.0 0.00 0.00 0.00 74 1014.7
20260904142503 86 233 0.0 2.0 0.00 0.00 0.00 74 1014.6
20260904142004 86 232 0.0 2.0 0.00 0.00 0.00 75 1014.7
20260904141503 86 230 0.0 1.0 0.00 0.00 0.00 75 1014.7
20260904141217 86 239 0.0 1.0 0.00 0.00 0.00 76 1014.7
20260904140503 85 230 0.0 3.0 0.00 0.00 0.00 76 1014.7
20260904140004 84 226 0.0 3.0 0.00 0.00 0.00 77 1014.7
20260904135504 84 222 0.0 1.0 0.00 0.00 0.00 78 1014.7
20260904135003 84 233 0.0 1.0 0.00 0.00 0.00 78 1014.7
20260904134718 84 233 0.0 1.0 0.00 0.00 0.00 78 1014.7
20260904134217 83 240 0.0 1.0 0.00 0.00 0.00 79 1014.8
20260904133718 83 0 0.0 0.0 0.00 0.00 0.00 80 1014.8
20260904133004 82 240 0.0 1.0 0.00 0.00 0.00 81 1014.9
20260904132503 82 218 0.0 1.0 0.00 0.00 0.00 81 1014.9
20260904132004 82 214 0.0 1.0 0.00 0.00 0.00 81 1014.9
20260904131504 82 214 0.0 1.0 0.00 0.00 0.00 82 1014.9
20260904131003 81 233 0.0 1.0 0.00 0.00 0.00 82 1014.8
20260904130504 81 233 0.0 1.0 0.00 0.00 0.00 82 1014.8
20260904130004 81 234 0.0 1.0 0.00 0.00 0.00 82 1014.7
20260904125503 81 0 0.0 0.0 0.00 0.00 0.00 83 1014.7
20260904125004 80 0 0.0 0.0 0.00 0.00 0.00 83 1014.7
20260904124503 80 0 0.0 0.0 0.00 0.00 0.00 84 1014.6
20260904124004 80 0 0.0 0.0 0.00 0.00 0.00 84 1014.4
20260904123718 80 0 0.0 0.0 0.00 0.00 0.00 85 1014.3
20260904123004 79 0 0.0 0.0 0.00 0.00 0.00 86 1014.2
20260904122503 78 0 0.0 0.0 0.00 0.00 0.00 87 1014.1
20260904122004 77 0 0.0 0.0 0.00 0.00 0.00 88 1014.0
20260904121503 77 0 0.0 0.0 0.00 0.00 0.00 89 1014.0
20260904121003 77 0 0.0 0.0 0.00 0.00 0.00 90 1014.0
20260904120718 77 0 0.0 0.0 0.00 0.00 0.00 90 1013.9
20260904120003 76 0 0.0 0.0 0.00 0.00 0.00 90 1013.9
20260904115504 76 0 0.0 0.0 0.00 0.00 0.00 90 1013.9
20260904115003 76 0 0.0 0.0 0.00 0.00 0.00 91 1013.9
20260904114504 76 0 0.0 0.0 0.00 0.00 0.00 91 1013.8
20260904114004 76 0 0.0 0.0 0.00 0.00 0.00 91 1013.8
20260904113503 76 0 0.0 0.0 0.00 0.00 0.00 91 1013.9
20260904113003 76 0 0.0 0.0 0.00 0.00 0.00 91 1013.9
20260904112504 76 0 0.0 0.0 0.00 0.00 0.00 91 1013.9
20260904112218 76 0 0.0 0.0 0.00 0.00 0.00 92 1013.8
20260904111504 76 0 0.0 0.0 0.00 0.00 0.00 92 1013.7
20260904111004 76 0 0.0 0.0 0.00 0.00 0.00 92 1013.8
20260904110717 76 0 0.0 0.0 0.00 0.00 0.00 92 1013.9
20260904110003 76 0 0.0 0.0 0.00 0.00 0.00 92 1013.9
20260904105504 76 0 0.0 0.0 0.00 0.00 0.00 92 1013.9
20260904105004 76 0 0.0 0.0 0.00 0.00 0.00 92 1013.9
20260904104503 76 0 0.0 0.0 0.00 0.00 0.00 92 1013.9
20260904104003 76 0 0.0 0.0 0.00 0.00 0.00 91 1013.8
20260904103503 76 0 0.0 0.0 0.00 0.00 0.00 91 1013.7
20260904103004 76 0 0.0 0.0 0.00 0.00 0.00 91 1013.7
20260904102504 76 0 0.0 0.0 0.00 0.00 0.00 91 1013.7
20260904102004 76 0 0.0 0.0 0.00 0.00 0.00 90 1013.7
20260904101504 76 0 0.0 0.0 0.00 0.00 0.00 90 1013.7
20260904101004 76 0 0.0 0.0 0.00 0.00 0.00 90 1013.7
20260904100717 76 0 0.0 0.0 0.00 0.00 0.00 90 1013.7
20260904100003 76 0 0.0 0.0 0.00 0.00 0.00 90 1013.7
20260904095503 76 0 0.0 0.0 0.00 0.00 0.00 90 1013.6
20260904095004 76 0 0.0 0.0 0.00 0.00 0.00 90 1013.6
20260904094504 76 0 0.0 0.0 0.00 0.00 0.00 90 1013.6
20260904094004 76 0 0.0 0.0 0.00 0.00 0.00 90 1013.5
20260904093719 76 0 0.0 0.0 0.00 0.00 0.00 90 1013.5
20260904093004 76 0 0.0 0.0 0.00 0.00 0.00 90 1013.5
20260904092504 76 0 0.0 0.0 0.00 0.00 0.00 90 1013.5
20260904092004 77 0 0.0 0.0 0.00 0.00 0.00 90 1013.4
20260904091503 77 0 0.0 0.0 0.00 0.00 0.00 90 1013.4
20260904091003 77 0 0.0 0.0 0.00 0.00 0.00 89 1013.4
20260904090504 77 0 0.0 0.0 0.00 0.00 0.00 89 1013.3
20260904090004 77 0 0.0 0.0 0.00 0.00 0.00 89 1013.3
20260904085503 77 0 0.0 0.0 0.00 0.00 0.00 90 1013.3
20260904085004 77 0 0.0 0.0 0.00 0.00 0.00 90 1013.2
20260904084504 77 0 0.0 0.0 0.00 0.00 0.00 90 1013.2
20260904084004 77 0 0.0 0.0 0.00 0.00 0.00 90 1013.2
20260904083503 77 0 0.0 0.0 0.00 0.00 0.00 89 1013.2
20260904083217 77 0 0.0 0.0 0.00 0.00 0.00 89 1013.1
20260904082504 77 0 0.0 0.0 0.00 0.00 0.00 89 1013.2
20260904082003 77 0 0.0 0.0 0.00 0.00 0.00 89 1013.2
20260904081504 77 0 0.0 0.0 0.00 0.00 0.00 89 1013.2
20260904081217 77 0 0.0 0.0 0.00 0.00 0.00 89 1013.2
20260904080504 78 0 0.0 0.0 0.00 0.00 0.00 89 1013.3
20260904080003 78 0 0.0 0.0 0.00 0.00 0.00 88 1013.2
20260904075504 78 0 0.0 0.0 0.00 0.00 0.00 88 1013.2
20260904075003 78 0 0.0 0.0 0.00 0.00 0.00 88 1013.2
20260904074504 78 0 0.0 0.0 0.00 0.00 0.00 88 1013.2
20260904074217 78 0 0.0 0.0 0.00 0.00 0.00 89 1013.2
20260904073503 78 0 0.0 0.0 0.00 0.00 0.00 89 1013.4
20260904073003 78 0 0.0 0.0 0.00 0.00 0.00 89 1013.4
20260904072718 78 0 0.0 0.0 0.00 0.00 0.00 88 1013.4
20260904072004 78 0 0.0 0.0 0.00 0.00 0.00 88 1013.4
20260904071504 78 0 0.0 0.0 0.00 0.00 0.00 88 1013.5
20260904071004 78 0 0.0 0.0 0.00 0.00 0.00 88 1013.6
20260904070503 78 0 0.0 0.0 0.00 0.00 0.00 89 1013.5
20260904070004 78 0 0.0 0.0 0.00 0.00 0.00 89 1013.6
20260904065503 78 0 0.0 0.0 0.00 0.00 0.00 89 1013.6
20260904065004 78 0 0.0 0.0 0.00 0.00 0.00 89 1013.6
20260904064718 78 0 0.0 0.0 0.00 0.00 0.00 89 1013.7
20260904064004 78 0 0.0 0.0 0.00 0.00 0.00 89 1013.6
20260904063504 79 0 0.0 0.0 0.00 0.00 0.00 89 1013.6
20260904063003 79 0 0.0 0.0 0.00 0.00 0.00 88 1013.6
20260904062504 79 0 0.0 0.0 0.00 0.00 0.00 89 1013.7
20260904062004 79 0 0.0 0.0 0.00 0.00 0.00 88 1013.8
20260904061504 79 0 0.0 0.0 0.00 0.00 0.00 88 1013.7
20260904061004 79 0 0.0 0.0 0.00 0.00 0.00 88 1013.7
20260904060504 79 0 0.0 0.0 0.00 0.00 0.00 88 1013.7
20260904060218 79 0 0.0 0.0 0.00 0.00 0.00 88 1013.8
20260904055717 79 0 0.0 0.0 0.00 0.00 0.00 88 1013.8
20260904055004 80 0 0.0 0.0 0.00 0.00 0.00 87 1013.7
20260904054504 80 0 0.0 0.0 0.00 0.00 0.00 87 1013.6
20260904054003 80 0 0.0 0.0 0.00 0.00 0.00 86 1013.6
20260904053504 80 0 0.0 0.0 0.00 0.00 0.00 86 1013.6
20260904053004 80 0 0.0 0.0 0.00 0.00 0.00 86 1013.6
20260904052717 80 0 0.0 0.0 0.00 0.00 0.00 86 1013.6
20260904052003 81 0 0.0 0.0 0.00 0.00 0.00 86 1013.5
20260904051717 81 0 0.0 0.0 0.00 0.00 0.00 85 1013.6
20260904051003 81 0 0.0 0.0 0.00 0.00 0.00 84 1013.6
20260904050504 81 0 0.0 0.0 0.00 0.00 0.00 84 1013.6
20260904050004 81 0 0.0 0.0 0.00 0.00 0.00 84 1013.5
20260904045504 82 0 0.0 0.0 0.00 0.00 0.00 84 1013.5
20260904045004 82 0 0.0 0.0 0.00 0.00 0.00 83 1013.5
20260904044717 82 0 0.0 0.0 0.00 0.00 0.00 83 1013.5
20260904044004 82 0 0.0 0.0 0.00 0.00 0.00 83 1013.4
20260904043503 82 0 0.0 0.0 0.00 0.00 0.00 83 1013.5
20260904043004 82 0 0.0 0.0 0.00 0.00 0.00 83 1013.5
20260904042504 82 0 0.0 0.0 0.00 0.00 0.00 84 1013.5
20260904042218 82 0 0.0 0.0 0.00 0.00 0.00 84 1013.5
20260904041719 82 0 0.0 0.0 0.00 0.00 0.00 84 1013.5
20260904041004 82 0 0.0 0.0 0.00 0.00 0.00 84 1013.5
20260904040719 82 0 0.0 0.0 0.00 0.00 0.00 85 1013.5
20260904040009 82 0 0.0 0.0 0.00 0.00 0.00 85 1013.3
20260904035718 82 0 0.0 0.0 0.00 0.00 0.00 85 1013.2
20260904035003 82 0 0.0 0.0 0.00 0.00 0.00 86 1013.3
20260904034503 82 0 0.0 0.0 0.00 0.00 0.00 86 1013.2
20260904034004 82 0 0.0 0.0 0.00 0.00 0.00 85 1013.3
20260904033504 83 0 0.0 0.0 0.00 0.00 0.00 85 1013.3
20260904033004 83 0 0.0 0.0 0.00 0.00 0.00 84 1013.2
20260904032718 83 0 0.0 0.0 0.00 0.00 0.00 84 1013.2
20260904032003 83 0 0.0 0.0 0.00 0.00 0.00 84 1013.3
20260904031504 83 0 0.0 0.0 0.00 0.00 0.00 85 1013.2
20260904031003 83 0 0.0 0.0 0.00 0.00 0.00 85 1013.2
20260904030504 83 0 0.0 0.0 0.00 0.00 0.00 86 1013.1
20260904030004 84 0 0.0 0.0 0.00 0.00 0.00 85 1013.1
20260904025504 84 0 0.0 0.0 0.00 0.00 0.00 86 1013.2
20260904025217 84 0 0.0 0.0 0.00 0.00 0.00 86 1013.2
20260904024718 84 0 0.0 0.0 0.00 0.00 0.00 85 1013.1
20260904024003 84 0 0.0 0.0 0.00 0.00 0.00 85 1013.0
20260904023504 84 0 0.0 0.0 0.00 0.00 0.00 84 1013.2
20260904023004 84 0 0.0 0.0 0.00 0.00 0.00 84 1013.2
20260904022718 84 0 0.0 0.0 0.00 0.00 0.00 83 1013.1
20260904022003 85 0 0.0 0.0 0.00 0.00 0.00 82 1013.1
20260904021503 85 0 0.0 0.0 0.00 0.00 0.00 81 1013.1
20260904021003 85 0 0.0 0.0 0.00 0.00 0.00 82 1013.1
20260904020504 85 0 0.0 0.0 0.00 0.00 0.00 81 1012.9
20260904020004 85 0 0.0 0.0 0.00 0.00 0.00 80 1012.9
20260904015503 86 0 0.0 0.0 0.00 0.00 0.00 79 1013.0
20260904015008 86 0 0.0 0.0 0.00 0.00 0.00 79 1013.0
20260904014503 86 0 0.0 0.0 0.00 0.00 0.00 79 1013.0
20260904014004 86 0 0.0 0.0 0.00 0.00 0.00 79 1013.0
20260904013503 86 0 0.0 0.0 0.00 0.00 0.00 79 1012.9
20260904013004 86 0 0.0 0.0 0.00 0.00 0.00 78 1012.8
20260904012504 86 0 0.0 0.0 0.00 0.00 0.00 78 1012.9
20260904012004 87 0 0.0 0.0 0.00 0.00 0.00 78 1012.9
20260904011504 87 0 0.0 0.0 0.00 0.00 0.00 77 1012.8
20260904011003 87 0 0.0 0.0 0.00 0.00 0.00 77 1012.8
20260904010503 88 0 0.0 0.0 0.00 0.00 0.00 77 1012.8
20260904010004 88 0 0.0 0.0 0.00 0.00 0.00 76 1012.7
20260904005504 89 0 0.0 0.0 0.00 0.00 0.00 76 1012.7
20260904005003 89 0 0.0 0.0 0.00 0.00 0.00 75 1012.6
20260904004504 89 0 0.0 0.0 0.00 0.00 0.00 75 1012.6
20260904004004 90 0 0.0 0.0 0.00 0.00 0.00 74 1012.5
20260904003504 90 0 0.0 0.0 0.00 0.00 0.00 74 1012.6
20260904003004 91 0 0.0 0.0 0.00 0.00 0.00 73 1012.4
20260904002503 91 0 0.0 0.0 0.00 0.00 0.00 72 1012.4
20260904002004 92 0 0.0 0.0 0.00 0.00 0.00 71 1012.4
20260904001504 92 0 0.0 0.0 0.00 0.00 0.00 68 1012.3
20260904001003 93 0 0.0 0.0 0.00 0.00 0.00 69 1012.3
20260904000717 93 0 0.0 0.0 0.00 0.00 0.00 68 1012.3